Skip Page Navigation
NASA JPL Caltech
NASA Logo - Jet Propulsion Laboratory + View the NASA Portal
+ Center for Near-Earth Object Studies
JPL Home Earth Solar System Stars & Galaxies Technology
JPL Solar System Dynamics
BODIES ORBITS EPHEMERIDES TOOLS PHYSICAL DATA DISCOVERY FAQ SITE MAP

Significant website upgrade scheduled for September 27. More details available here.

JPL Small-Body Database Browser
Search: [ help ]  
24537 (2001 CB35)
Classification: Jupiter Trojan          SPK-ID: 2024537
Ephemeris | Orbit Diagram | Orbital Elements | Mission Design | Physical Parameters | Discovery Circumstances ]

[ hide orbit diagram ]

For accurate long-term ephemerides, please instead use our Horizons system.This orbit viewer was implemented using two-body methods, and hence should not be used for determining accurate long-term trajectories (over several years or decades) or planetary encounter circumstances.


Orbital Elements at Epoch 2459396.5 (2021-Jul-01.0) TDB
Reference: JPL 33 (heliocentric ecliptic J2000)
 Element Value Uncertainty (1-sigma)   Units 
e .08260245734108479 6.6399e-08  
a 5.17108678578403 9.782e-08 au
q 4.743942310154257 3.9802e-07 au
i 18.27743025876474 6.9866e-06 deg
node 34.87651604962677 1.3984e-05 deg
peri 14.99077411126154 3.6064e-05 deg
M 353.0988367426761 3.1892e-05 deg
tp 2459478.836228035737
(2021-Sep-21.33622804)
0.00038025 TDB
period 4295.079102991614
11.76
0.00012187
3.337e-07
d
yr
n .08381684978729552 2.3783e-09 deg/d
Q 5.598231261413803 1.059e-07 au
  Orbit Determination Parameters
   # obs. used (total)      1447  
   data-arc span      24992 days (68.42 yr)  
   first obs. used      1953-02-14  
   last obs. used      2021-07-19  
   planetary ephem.      DE441  
   SB-pert. ephem.      SB441-N16  
   condition code      0  
   norm. resid. RMS      .45981  
   source      ORB  
   producer      Otto Matic  
   solution date      2021-Aug-25 15:19:18  

Additional Information
 Earth MOID = 3.75602 au 
 Jupiter MOID = .118988 au 
 T_jup = 2.893 
[ hide covariance matrix ]
Orbital Elements at Epoch 2457738.5 (2016-Dec-16.0) TDB
Reference: JPL 33 (heliocentric ecliptic J2000)
 Element Value Uncertainty (1-sigma)   Units 
e .081092527082329 6.6269e-08  
q 4.744546605564878 3.962e-07 au
tp 2459485.197111301316
(2021-Sep-27.69711130)
0.00038983 TDB
node 34.88319073277449 1.3983e-05 deg
peri 15.49785845222967 3.6883e-05 deg
i 18.28583051770199 6.9893e-06 deg
  Orbit Determination Parameters
   # obs. used (total)      1447  
   data-arc span      24992 days (68.42 yr)  
   first obs. used      1953-02-14  
   last obs. used      2021-07-19  
   planetary ephem.      DE441  
   SB-pert. ephem.      SB441-N16  
   condition code      0  
   norm. resid. RMS      .45981  
   source      ORB  
   producer      Otto Matic  
   solution date      2021-Aug-25 15:19:18  

Additional Information
 Jupiter MOID = .118988 au 
 T_jup = 2.893 
Orbit Covariance (6×6)
  e q tp node peri i
e 4.391520136590681E-15 -2.575815857569346E-14 -9.985468239710819E-12 -2.193143473987219E-15 -6.00966286491311E-13 -1.717133502729856E-15
q -2.575815857569346E-14 1.56973282140128E-13 4.777541757885394E-11 1.795494540999299E-14 2.311068856990292E-12 1.015204746590996E-14
tp -9.985468239710819E-12 4.777541757885394E-11 1.519655042173838E-7 -1.174787980454312E-11 1.318459972526806E-8 1.450986332638465E-11
node -2.193143473987219E-15 1.795494540999299E-14 -1.174787980454312E-11 1.955115738868571E-10 -1.867874061018646E-10 -4.214983680455855E-11
peri -6.00966286491311E-13 2.311068856990292E-12 1.318459972526806E-8 -1.867874061018646E-10 1.360389717325753E-9 4.110811673636171E-11
i -1.717133502729856E-15 1.015204746590996E-14 1.450986332638465E-11 -4.214983680455855E-11 4.110811673636171E-11 4.884981598643366E-11

Ephemeris | Orbit Diagram | Orbital Elements | Mission Design | Physical Parameters | Discovery Circumstances ]

Physical Parameter Table
Parameter Symbol Value Units Sigma Reference Notes
absolute magnitude H 11.18   n/a E2021B10  
diameter diameter 31.158 km 0.393 urn:nasa:pds:neowise_diameters_albedos::2.0[jupiter_trojans] (http://adsabs.harvard.edu/abs/2012ApJ...759...49G)  
rotation period rot_per 10.489 h n/a LCDB (Rev. 2020-October); Warner et al., 2009 Result based on less than full coverage, so that the period may be wrong by 30 percent or so.
Published Reference List:
[Ryan, E.L.; Sharkey, B.N.L.; Woodward, C.E. (2017) Astron. J. 153, A116.]
[Szabo, Gy.M.; Pal, A.; Kiss, Cs.; Kiss, L.L.; et al. (2017) Astron. Astrophys. 599, A44.]
[Pal, A.; Szakats, R.; Kiss, C.; Bodi, A.; et al. (2019) Ap. J. Supl. Ser. 247, id.26.]
geometric albedo albedo 0.079   0.012 urn:nasa:pds:neowise_diameters_albedos::2.0[jupiter_trojans] (http://adsabs.harvard.edu/abs/2012ApJ...759...49G)  

24537 (2001 CB35)          Discovered 2001-Feb-13 by LINEAR at Socorro
Reference: 20010408/Numbers.arcLast Updated: 2004-04-19

Alternate Designations
 2001 CB35 = 1998 XP29 
Ephemeris | Orbit Diagram | Orbital Elements | Mission Design | Physical Parameters | Discovery Circumstances ]
ABOUT SSD CREDITS/AWARDS PRIVACY/COPYRIGHT GLOSSARY LINKS
FirstGov 2021-Sep-25 04:13 UT
(server date/time)  
NASA Home Page
Site Manager:   Ryan S. Park
Webmaster  Alan B. Chamberlin